Total_Precipitation_Accumulation
0.16 0.23 0.26 0.27 0.26 0.24 0.19 0.19 0.28 0.41 0.56 0.76 0.93 1.21 1.17 1.19 1.23 1.27 1.18 1.14 1.10 1.18 1.31 1.51 1.59 1.60 1.62 1.67 1.71 1.89 1.89 1.82 1.89 2.08 2.16 2.25 2.28 2.31 2.37 2.38 2.25 2.42 2.42 2.52
0.19 0.18 0.19 0.23 0.23 0.20 0.16 0.16 0.19 0.34 0.60 0.80 0.93 1.05 1.10 1.01 1.09 1.29 1.23 1.14 1.16 1.28 1.45 1.49 1.46 1.49 1.46 1.39 1.48 1.73 1.89 1.97 2.03 2.08 2.05 2.14 2.18 2.19 2.24 2.31 2.37 2.43 2.42 2.53
0.25 0.20 0.23 0.32 0.27 0.23 0.20 0.21 0.24 0.41 0.64 0.85 1.00 0.96 1.05 1.07 1.11 1.08 1.07 1.07 1.22 1.34 1.39 1.41 1.47 1.50 1.41 1.27 1.35 1.69 1.83 1.91 2.15 2.22 2.11 2.19 2.22 2.27 2.28 2.32 2.47 2.54 2.64 2.71
0.33 0.36 0.45 0.37 0.32 0.30 0.34 0.38 0.36 0.42 0.61 0.84 1.05 1.05 1.04 1.11 1.10 1.01 0.89 1.01 1.19 1.32 1.38 1.42 1.42 1.41 1.37 1.35 1.41 1.68 1.93 2.11 2.43 2.59 2.42 2.41 2.43 2.47 2.53 2.64 2.69 2.76 2.80 2.72
0.52 0.56 0.58 0.52 0.50 0.53 0.64 0.82 0.65 0.65 0.86 0.92 0.93 1.03 1.13 1.08 1.05 0.96 1.01 1.18 1.27 1.42 1.52 1.62 1.69 1.69 1.65 1.71 1.83 2.02 2.20 2.36 2.63 2.90 2.99 2.92 2.74 2.81 2.90 2.91 2.86 2.94 3.03 3.04
0.69 0.80 0.92 0.85 0.72 0.67 0.82 1.33 1.08 0.93 0.98 1.01 1.04 1.32 1.33 1.02 0.92 0.89 1.01 1.22 1.43 1.62 1.65 1.66 1.82 1.84 1.89 2.05 2.29 2.42 2.40 2.44 2.65 2.92 3.03 2.99 2.95 3.13 3.24 3.14 3.06 3.15 3.04 2.94
0.82 0.93 0.97 0.87 0.73 0.82 1.46 1.88 1.37 1.21 1.22 1.29 1.35 1.33 1.23 1.11 1.08 0.99 1.02 1.17 1.23 1.27 1.47 1.58 1.72 1.90 2.16 2.27 2.42 2.50 2.58 2.56 2.68 2.93 3.21 3.15 3.22 3.33 3.41 3.42 3.47 3.48 3.37 3.23
0.98 1.24 1.40 0.93 0.84 1.29 1.72 1.53 1.56 1.57 1.55 1.46 1.34 1.29 1.24 1.19 1.22 1.14 1.12 1.20 1.25 1.24 1.37 1.58 1.83 2.07 2.26 2.34 2.42 2.58 2.63 2.63 2.70 2.98 3.11 3.14 3.31 3.39 3.51 3.67 3.72 3.67 3.59 3.26
1.32 1.58 1.42 1.12 1.22 1.35 1.43 1.54 1.58 1.51 1.54 1.51 1.45 1.38 1.35 1.38 1.35 1.33 1.35 1.32 1.45 1.52 1.55 1.70 1.96 2.18 2.42 2.47 2.47 2.42 2.39 2.43 2.56 2.74 2.88 3.06 3.21 3.19 3.31 3.48 3.42 3.36 3.23 3.01
1.79 1.77 1.56 1.38 1.32 1.37 1.34 1.39 1.35 1.27 1.24 1.21 1.25 1.26 1.28 1.36 1.46 1.49 1.61 1.57 1.57 1.73 1.77 1.83 2.01 2.23 2.35 2.36 2.37 2.36 2.28 2.27 2.43 2.69 2.86 3.00 3.11 3.07 3.11 3.11 3.11 3.11 3.05 2.91
2.31 2.28 2.03 1.84 1.63 1.56 1.43 1.42 1.36 1.26 1.23 1.18 1.10 1.13 1.17 1.21 1.36 1.52 1.62 1.60 1.58 1.70 1.83 1.86 1.95 2.15 2.28 2.34 2.39 2.44 2.39 2.41 2.59 2.71 2.80 2.96 3.01 3.02 3.02 2.95 2.92 2.93 2.86 2.74
2.72 2.45 2.29 2.24 1.85 1.74 1.69 1.55 1.41 1.41 1.40 1.28 1.14 1.13 1.20 1.23 1.29 1.39 1.54 1.63 1.68 1.77 1.85 1.87 1.94 2.10 2.21 2.38 2.56 2.63 2.57 2.57 2.58 2.53 2.62 2.61 2.61 2.58 2.57 2.51 2.51 2.47 2.43 2.34
2.09 2.14 2.16 2.32 2.13 1.80 1.64 1.54 1.47 1.49 1.50 1.38 1.27 1.21 1.15 1.18 1.29 1.41 1.59 1.76 1.94 2.02 1.98 1.93 2.00 2.13 2.21 2.36 2.61 2.76 2.69 2.57 2.48 2.38 2.36 2.37 2.42 2.45 2.45 2.37 2.30 2.22 2.14 1.99
1.94 2.29 2.46 2.40 2.48 2.25 1.92 1.73 1.57 1.50 1.48 1.36 1.33 1.31 1.30 1.36 1.40 1.54 1.78 1.94 1.97 2.00 1.98 1.92 1.95 2.10 2.17 2.30 2.59 2.78 2.71 2.59 2.38 2.26 2.22 2.20 2.32 2.37 2.34 2.31 2.24 2.03 1.90 1.84
2.12 2.25 2.34 2.23 2.28 2.36 2.28 2.13 1.93 1.76 1.62 1.53 1.55 1.58 1.51 1.48 1.50 1.59 1.70 1.87 2.04 2.03 1.90 1.81 1.83 1.92 2.02 2.16 2.35 2.51 2.57 2.49 2.36 2.31 2.31 2.20 2.16 2.21 2.20 2.18 2.20 2.11 1.92 1.88
2.00 1.94 2.02 2.18 2.31 2.27 2.24 2.22 2.15 2.02 1.82 1.71 1.71 1.68 1.59 1.57 1.59 1.63 1.67 1.78 2.10 2.26 2.10 1.89 1.81 1.82 1.91 2.07 2.17 2.16 2.23 2.27 2.25 2.30 2.29 2.23 2.23 2.24 2.28 2.33 2.34 2.23 2.06 1.94
1.85 1.79 1.80 1.94 2.08 2.18 2.20 2.05 1.99 1.96 1.91 1.80 1.76 1.73 1.69 1.66 1.71 1.86 1.94 1.99 2.05 2.05 2.06 2.04 1.95 1.87 1.94 2.08 2.20 2.13 1.99 1.96 1.94 1.90 1.95 2.07 2.14 2.23 2.33 2.38 2.41 2.30 2.06 1.90
1.57 1.58 1.67 1.74 1.80 1.98 2.05 1.89 1.77 1.76 1.77 1.73 1.70 1.66 1.68 1.76 1.96 2.20 2.24 2.15 2.14 2.03 1.89 1.86 1.89 1.89 1.97 2.04 2.18 2.19 2.05 1.87 1.71 1.67 1.72 1.88 2.10 2.24 2.30 2.24 2.19 2.13 2.02 1.95
1.37 1.42 1.48 1.50 1.53 1.65 1.78 1.86 1.85 1.77 1.68 1.67 1.76 1.83 1.84 1.87 2.06 2.30 2.35 2.33 2.30 2.17 1.91 1.76 1.78 1.75 1.84 1.94 2.07 2.06 1.90 1.69 1.51 1.49 1.58 1.75 1.98 2.30 2.32 2.09 1.96 1.91 1.95 1.95
1.37 1.39 1.42 1.35 1.32 1.38 1.54 1.69 1.71 1.74 1.73 1.73 1.79 1.85 1.93 1.99 2.17 2.36 2.44 2.47 2.37 2.16 1.88 1.68 1.56 1.52 1.56 1.75 1.89 1.84 1.73 1.59 1.47 1.45 1.51 1.65 1.92 2.22 2.15 1.99 1.88 1.88 1.91 1.94
1.39 1.38 1.43 1.44 1.39 1.33 1.39 1.49 1.57 1.70 1.80 1.81 1.91 2.03 2.06 2.04 2.18 2.41 2.59 2.56 2.24 1.92 1.71 1.66 1.47 1.35 1.37 1.60 1.70 1.63 1.60 1.56 1.51 1.54 1.60 1.76 2.03 2.21 2.11 1.98 1.92 1.90 1.91 1.98
1.42 1.36 1.37 1.48 1.54 1.49 1.47 1.52 1.55 1.62 1.72 1.74 1.86 2.02 2.02 2.10 2.09 2.07 2.16 2.35 2.18 1.96 1.60 1.41 1.36 1.39 1.47 1.60 1.59 1.54 1.56 1.57 1.57 1.62 1.71 1.85 1.99 2.05 2.03 1.98 1.99 1.96 1.94 1.98
1.48 1.42 1.41 1.54 1.66 1.68 1.56 1.56 1.60 1.67 1.76 1.72 1.77 1.86 1.99 2.12 2.09 2.11 2.01 1.86 1.81 1.77 1.53 1.39 1.41 1.45 1.48 1.49 1.58 1.60 1.64 1.63 1.57 1.61 1.70 1.79 1.87 1.92 1.95 1.98 1.94 1.88 1.92 1.89
1.45 1.47 1.51 1.51 1.56 1.69 1.77 1.75 1.77 1.78 1.78 1.65 1.58 1.57 1.68 1.83 1.82 1.75 1.79 1.85 1.77 1.71 1.53 1.48 1.44 1.40 1.44 1.39 1.47 1.58 1.66 1.59 1.53 1.52 1.60 1.68 1.73 1.78 1.90 2.00 1.94 1.85 1.81 1.77
1.60 1.63 1.64 1.64 1.70 1.79 1.84 1.79 1.85 1.89 1.85 1.69 1.56 1.46 1.45 1.64 1.75 1.65 1.66 1.67 1.67 1.61 1.49 1.48 1.48 1.52 1.48 1.50 1.52 1.51 1.49 1.42 1.42 1.47 1.54 1.64 1.71 1.73 1.80 1.83 1.76 1.77 1.77 1.73
1.76 1.70 1.65 1.66 1.69 1.73 1.72 1.82 1.93 1.91 1.93 1.90 1.73 1.50 1.43 1.50 1.55 1.61 1.68 1.66 1.68 1.73 1.54 1.45 1.43 1.47 1.48 1.58 1.59 1.48 1.37 1.35 1.39 1.41 1.49 1.61 1.62 1.70 1.77 1.76 1.68 1.73 1.71 1.67
1.72 1.65 1.60 1.61 1.58 1.52 1.52 1.64 1.82 1.96 2.13 2.16 1.91 1.58 1.48 1.50 1.55 1.61 1.63 1.64 1.71 1.74 1.65 1.52 1.43 1.41 1.42 1.49 1.50 1.43 1.37 1.33 1.35 1.39 1.46 1.49 1.55 1.64 1.70 1.72 1.66 1.63 1.65 1.62